^^
Saratoga-Weather Station Historical Data
Daily Summary for August 13, 2022 Units:  English    Metric   Both
Daily Weekly Monthly Yearly Custom
  High: Low: Average:
Temperature: 89.6 °F 62.2 °F 75.9 °F
Dew Point: 53.1 °F 47.7 °F 50.2 °F
Humidity: 61% 25% 43%
Wind Speed: 12.1mph 0mph 1.6mph
Wind Gust: 15mph - -
Wind- - ESE
Pressure: 30 in 29.8 in -
Precipitation: 0 in    
Historical Graphs
 
 
Tabular Data for August 13, 2022
Time Temperature Dew Point Pressure Wind Wind Speed Wind Gust Humidity Rainfall Rate (Hourly) solar
00:04 68.7 °F 48.7 °F 29.9 in Calm   1 mph 49% 0 in 0 W/m2
00:09 68.7 °F 48.7 °F 29.9 in Calm     49% 0 in 0 W/m2
00:14 68.5 °F 48.6 °F 29.9 in Calm   1 mph 49% 0 in 0 W/m2
00:19 68.4 °F 48.9 °F 29.9 in SSE 0.9 mph 1 mph 50% 0 in 0 W/m2
00:24 68.2 °F 48.9 °F 29.9 in Calm     50% 0 in 0 W/m2
00:29 67.8 °F 49.1 °F 29.9 in Calm     51% 0 in 0 W/m2
00:34 67.6 °F 48.9 °F 29.9 in Calm   1 mph 51% 0 in 0 W/m2
00:39 67.5 °F 48.7 °F 29.9 in Calm   2 mph 51% 0 in 0 W/m2
00:44 67.3 °F 48.6 °F 29.9 in SSE 0.9 mph 1 mph 51% 0 in 0 W/m2
00:49 67.1 °F 48.4 °F 29.9 in Calm   2 mph 51% 0 in 0 W/m2
00:54 66.9 °F 48.7 °F 29.9 in Calm     52% 0 in 0 W/m2
00:59 66.7 °F 48.6 °F 29.9 in SSE 2 mph 2 mph 52% 0 in 0 W/m2
01:04 66.6 °F 48.9 °F 29.9 in Calm   1 mph 53% 0 in 0 W/m2
01:09 66.6 °F 48.4 °F 29.9 in Calm   2 mph 52% 0 in 0 W/m2
01:14 66.6 °F 48.9 °F 29.9 in Calm     53% 0 in 0 W/m2
01:19 66.4 °F 48.7 °F 29.9 in Calm   2 mph 53% 0 in 0 W/m2
01:24 66 °F 48.4 °F 29.9 in SSE 2 mph 2 mph 53% 0 in 0 W/m2
01:29 66 °F 48.9 °F 29.9 in Calm   2 mph 54% 0 in 0 W/m2
01:34 65.8 °F 48.2 °F 29.9 in SSE 2 mph 2 mph 53% 0 in 0 W/m2
01:39 65.8 °F 48.7 °F 29.9 in Calm     54% 0 in 0 W/m2
01:44 65.8 °F 48.7 °F 29.9 in Calm   1 mph 54% 0 in 0 W/m2
01:49 65.7 °F 48.6 °F 29.9 in Calm     54% 0 in 0 W/m2
01:54 65.5 °F 48.4 °F 29.9 in SSE 0.9 mph 3 mph 54% 0 in 0 W/m2
01:59 65.5 °F 48.9 °F 29.9 in Calm   2 mph 55% 0 in 0 W/m2
02:04 65.7 °F 48.6 °F 29.9 in Calm   1 mph 54% 0 in 0 W/m2
02:09 65.7 °F 48.6 °F 29.9 in Calm   1 mph 54% 0 in 0 W/m2
02:14 65.5 °F 48.4 °F 29.9 in Calm     54% 0 in 0 W/m2
02:19 65.5 °F 48.4 °F 29.9 in Calm   2 mph 54% 0 in 0 W/m2
02:24 65.5 °F 48.9 °F 29.9 in Calm     55% 0 in 0 W/m2
02:29 65.3 °F 48.7 °F 29.9 in Calm   2 mph 55% 0 in 0 W/m2
02:34 64.9 °F 48.4 °F 29.9 in SSE 0.9 mph 1 mph 55% 0 in 0 W/m2
02:39 64.9 °F 48.4 °F 29.9 in Calm   1 mph 55% 0 in 0 W/m2
02:44 64.9 °F 48.4 °F 29.9 in South 2 mph 2 mph 55% 0 in 0 W/m2
02:49 64.9 °F 47.8 °F 29.9 in SW 0.9 mph 3 mph 54% 0 in 0 W/m2
02:54 64.9 °F 48.4 °F 29.9 in SW 0.9 mph 2 mph 55% 0 in 0 W/m2
02:59 64.9 °F 48.4 °F 29.9 in SSE 2 mph 3 mph 55% 0 in 0 W/m2
03:04 64.8 °F 48.2 °F 29.9 in SSE 0.9 mph 1 mph 55% 0 in 0 W/m2
03:09 64.8 °F 48.2 °F 29.9 in Calm   3 mph 55% 0 in 0 W/m2
03:14 64.6 °F 48.6 °F 29.9 in Calm     56% 0 in 0 W/m2
03:19 64.4 °F 48.4 °F 29.9 in Calm   1 mph 56% 0 in 0 W/m2
03:24 64.2 °F 48.2 °F 29.9 in Calm   2 mph 56% 0 in 0 W/m2
03:29 64.2 °F 48.2 °F 29.9 in Calm     56% 0 in 0 W/m2
03:34 64 °F 48.6 °F 29.9 in Calm   2 mph 57% 0 in 0 W/m2
03:39 63.9 °F 48.4 °F 29.9 in Calm     57% 0 in 0 W/m2
03:44 63.7 °F 48.2 °F 29.9 in Calm   1 mph 57% 0 in 0 W/m2
03:49 63.7 °F 48.2 °F 29.9 in Calm   2 mph 57% 0 in 0 W/m2
03:54 63.3 °F 48.4 °F 29.9 in Calm   1 mph 58% 0 in 0 W/m2
03:59 63.1 °F 48.2 °F 29.9 in Calm   2 mph 58% 0 in 0 W/m2
04:04 63.1 °F 48.2 °F 29.9 in Calm   1 mph 58% 0 in 0 W/m2
04:09 63 °F 48 °F 29.9 in SW 2 mph 2 mph 58% 0 in 0 W/m2
04:14 63 °F 48 °F 29.9 in Calm   1 mph 58% 0 in 0 W/m2
04:19 63.1 °F 48.2 °F 29.9 in SW 2 mph 2 mph 58% 0 in 0 W/m2
04:25 63.3 °F 48.4 °F 29.9 in Calm   2 mph 58% 0 in 0 W/m2
04:30 63.5 °F 48 °F 29.9 in Calm   2 mph 57% 0 in 0 W/m2
04:35 63.3 °F 47.8 °F 29.9 in WNW 0.9 mph 1 mph 57% 0 in 0 W/m2
04:40 63.3 °F 48.4 °F 29.9 in Calm     58% 0 in 0 W/m2
04:45 63.1 °F 48.2 °F 29.9 in WNW 0.9 mph 1 mph 58% 0 in 0 W/m2
04:50 63 °F 48.4 °F 29.9 in Calm   2 mph 59% 0 in 0 W/m2
04:55 63 °F 48 °F 30 in WNW 0.9 mph 1 mph 58% 0 in 0 W/m2
05:00 62.8 °F 48.2 °F 29.9 in Calm   2 mph 59% 0 in 0 W/m2
05:05 62.8 °F 47.8 °F 29.9 in Calm   1 mph 58% 0 in 0 W/m2
05:10 62.6 °F 48 °F 29.9 in Calm   1 mph 59% 0 in 0 W/m2
05:15 62.4 °F 47.8 °F 30 in WSW 0.9 mph 2 mph 59% 0 in 0 W/m2
05:20 62.6 °F 48 °F 30 in Calm   1 mph 59% 0 in 0 W/m2
05:25 62.6 °F 48 °F 30 in Calm     59% 0 in 0 W/m2
05:30 62.4 °F 47.8 °F 29.9 in Calm     59% 0 in 0 W/m2
05:35 62.2 °F 47.7 °F 30 in Calm   1 mph 59% 0 in 0 W/m2
05:40 62.2 °F 48.2 °F 30 in WSW 0.9 mph 2 mph 60% 0 in 0 W/m2
05:45 62.2 °F 48.2 °F 30 in Calm   2 mph 60% 0 in 0 W/m2
05:50 62.2 °F 48.2 °F 30 in WSW 0.9 mph 2 mph 60% 0 in 0 W/m2
05:55 62.4 °F 48.4 °F 30 in Calm   1 mph 60% 0 in 0 W/m2
06:00 62.4 °F 47.8 °F 30 in Calm   2 mph 59% 0 in 0 W/m2
06:05 62.8 °F 48.2 °F 30 in Calm   2 mph 59% 0 in 0 W/m2
06:10 63 °F 48 °F 30 in Calm   3 mph 58% 0 in 0 W/m2
06:15 63.1 °F 48.2 °F 30 in SW 2 mph 2 mph 58% 0 in 0 W/m2
06:20 63.1 °F 48.6 °F 30 in SW 3 mph 3 mph 59% 0 in 0 W/m2
06:25 63 °F 48.4 °F 30 in SW 0.9 mph 2 mph 59% 0 in 0 W/m2
06:30 62.8 °F 48.2 °F 30 in Calm   1 mph 59% 0 in 5 W/m2
06:35 62.6 °F 48.6 °F 30 in Calm   2 mph 60% 0 in 7 W/m2
06:40 62.6 °F 48.6 °F 30 in Calm   2 mph 60% 0 in 9 W/m2
06:45 62.6 °F 48.6 °F 30 in SW 0.9 mph 2 mph 60% 0 in 11 W/m2
06:50 62.6 °F 48.6 °F 30 in Calm   1 mph 60% 0 in 12 W/m2
06:55 62.6 °F 48.9 °F 30 in Calm   2 mph 61% 0 in 14 W/m2
07:00 62.6 °F 48.6 °F 30 in Calm   1 mph 60% 0 in 16 W/m2
07:05 63 °F 48.9 °F 30 in SW 0.9 mph 3 mph 60% 0 in 18 W/m2
07:10 63.1 °F 49.1 °F 30 in Calm     60% 0 in 19 W/m2
07:15 63.5 °F 48.9 °F 30 in WSW 0.9 mph 3 mph 59% 0 in 19 W/m2
07:20 64 °F 48.6 °F 30 in WSW 0.9 mph 2 mph 57% 0 in 21 W/m2
07:25 64.6 °F 48.9 °F 30 in Calm   3 mph 57% 0 in 21 W/m2
07:30 64.6 °F 49.5 °F 30 in Calm   1 mph 58% 0 in 23 W/m2
07:35 64.8 °F 49.1 °F 30 in Calm   1 mph 57% 0 in 44 W/m2
07:40 65.1 °F 49.5 °F 30 in Calm   1 mph 57% 0 in 95 W/m2
07:45 65.5 °F 49.3 °F 30 in Calm   1 mph 56% 0 in 109 W/m2
07:50 66.2 °F 49.6 °F 30 in Calm   1 mph 55% 0 in 123 W/m2
07:55 66.9 °F 49.8 °F 30 in Calm   1 mph 54% 0 in 141 W/m2
08:00 67.6 °F 49.5 °F 30 in Calm     52% 0 in 156 W/m2
08:05 68.4 °F 50.5 °F 30 in Calm   1 mph 53% 0 in 172 W/m2
08:10 69.1 °F 49.6 °F 30 in South 0.9 mph 2 mph 50% 0 in 162 W/m2
08:15 69.3 °F 49.8 °F 30 in Calm   1 mph 50% 0 in 91 W/m2
08:20 69.4 °F 50 °F 30 in NW 0.9 mph 2 mph 50% 0 in 44 W/m2
08:25 69.8 °F 49.8 °F 30 in Calm   2 mph 49% 0 in 37 W/m2
08:30 70.5 °F 49.8 °F 30 in Calm   1 mph 48% 0 in 35 W/m2
08:35 71.2 °F 50.5 °F 30 in ENE 0.9 mph 3 mph 48% 0 in 35 W/m2
08:40 72 °F 50.7 °F 30 in ENE 2 mph 6 mph 47% 0 in 35 W/m2
08:45 72.1 °F 50.2 °F 30 in ENE 0.9 mph 4 mph 46% 0 in 35 W/m2
08:50 72 °F 50 °F 30 in SE 2 mph 6 mph 46% 0 in 35 W/m2
08:55 72 °F 50 °F 30 in WNW 2 mph 3 mph 46% 0 in 35 W/m2
09:00 71.8 °F 50.5 °F 30 in SSE 4 mph 5 mph 47% 0 in 35 W/m2
09:05 72 °F 50.7 °F 30 in ENE 0.9 mph 2 mph 47% 0 in 35 W/m2
09:10 72.1 °F 50.7 °F 30 in Calm   2 mph 47% 0 in 35 W/m2
09:15 72.5 °F 50.5 °F 30 in ESE 0.9 mph 2 mph 46% 0 in 35 W/m2
09:20 72.7 °F 50.7 °F 30 in ENE 0.9 mph 2 mph 46% 0 in 35 W/m2
09:25 72.9 °F 50.9 °F 30 in ENE 0.9 mph 1 mph 46% 0 in 35 W/m2
09:31 73 °F 51.1 °F 30 in Calm   3 mph 46% 0 in 37 W/m2
09:36 73.2 °F 51.3 °F 30 in SSE 2 mph 3 mph 46% 0 in 40 W/m2
09:41 73.6 °F 51.4 °F 30 in East 2 mph 3 mph 46% 0 in 37 W/m2
09:46 73.8 °F 51.6 °F 30 in North 2 mph 3 mph 46% 0 in 37 W/m2
09:51 73.9 °F 51.8 °F 30 in NE 2.9 mph 3 mph 46% 0 in 39 W/m2
09:56 74.5 °F 52.3 °F 30 in Calm   2 mph 46% 0 in 40 W/m2
10:01 74.8 °F 52.2 °F 30 in NE 0.9 mph 2 mph 45% 0 in 42 W/m2
10:06 75.4 °F 52.5 °F 30 in ESE 2.9 mph 6 mph 45% 0 in 95 W/m2
10:11 75.6 °F 52.7 °F 30 in SE 0.9 mph 4 mph 45% 0 in 248 W/m2
10:16 75.9 °F 53.1 °F 30 in ENE 2 mph 4 mph 45% 0 in 519 W/m2
10:21 76.3 °F 52.7 °F 30 in North 0.9 mph 4 mph 44% 0 in 541 W/m2
10:26 76.5 °F 52.9 °F 30 in North 2 mph 4 mph 44% 0 in 557 W/m2
10:31 77.2 °F 52.9 °F 30 in North 2 mph 2 mph 43% 0 in 571 W/m2
10:36 77.7 °F 52.9 °F 30 in ENE 2.9 mph 5 mph 42% 0 in 582 W/m2
10:41 78.4 °F 52.2 °F 30 in ESE 6.9 mph 9 mph 40% 0 in 596 W/m2
10:46 79 °F 52 °F 30 in ESE 4 mph 8 mph 39% 0 in 605 W/m2
10:51 79.3 °F 52.2 °F 30 in SE 0.9 mph 5 mph 39% 0 in 613 W/m2
10:56 79.9 °F 52 °F 30 in East 2.9 mph 6 mph 38% 0 in 628 W/m2
11:01 80.2 °F 52.3 °F 30 in SE 2.9 mph 6 mph 38% 0 in 642 W/m2
11:06 80.4 °F 51.8 °F 30 in NE 0.9 mph 7 mph 37% 0 in 652 W/m2
11:11 80.8 °F 51.3 °F 30 in ESE 2 mph 6 mph 36% 0 in 661 W/m2
11:16 80.8 °F 52.2 °F 30 in SSW 2 mph 6 mph 37% 0 in 670 W/m2
11:21 80.8 °F 52.2 °F 30 in ENE 2.9 mph 8 mph 37% 0 in 679 W/m2
11:26 81.1 °F 52.3 °F 30 in East 6.9 mph 8 mph 37% 0 in 689 W/m2
11:31 81.3 °F 52.5 °F 30 in East 2.9 mph 4 mph 37% 0 in 694 W/m2
11:36 81.1 °F 53.1 °F 30 in ESE 8.1 mph 8 mph 38% 0 in 703 W/m2
11:41 81.1 °F 52.3 °F 30 in ESE 0.9 mph 10 mph 37% 0 in 715 W/m2
11:46 81.3 °F 52.5 °F 30 in ESE 6 mph 7 mph 37% 0 in 722 W/m2
11:51 81.7 °F 52.2 °F 30 in North 2 mph 8 mph 36% 0 in 735 W/m2
11:56 81.9 °F 51.4 °F 29.9 in Calm   7 mph 35% 0 in 744 W/m2
12:01 82.4 °F 52 °F 29.9 in NE 4 mph 10 mph 35% 0 in 751 W/m2
12:06 82.8 °F 51.4 °F 29.9 in SE 4.9 mph 9 mph 34% 0 in 756 W/m2
12:11 83.1 °F 51.8 °F 29.9 in ENE 2 mph 5 mph 34% 0 in 759 W/m2
12:16 83.5 °F 52.2 °F 29.9 in East 4 mph 9 mph 34% 0 in 763 W/m2
12:21 83.8 °F 52.5 °F 29.9 in NE 2.9 mph 8 mph 34% 0 in 770 W/m2
12:26 83.8 °F 51.6 °F 29.9 in ESE 4 mph 10 mph 33% 0 in 773 W/m2
12:31 83.8 °F 51.6 °F 29.9 in SE 2.9 mph 11 mph 33% 0 in 793 W/m2
12:36 83.7 °F 52.3 °F 29.9 in SE 2 mph 7 mph 34% 0 in 800 W/m2
12:41 83.8 °F 51.6 °F 29.9 in NNE 2 mph 5 mph 33% 0 in 802 W/m2
12:46 83.8 °F 51.6 °F 29.9 in ENE 2.9 mph 9 mph 33% 0 in 807 W/m2
12:51 83.8 °F 51.6 °F 29.9 in ESE 2 mph 3 mph 33% 0 in 810 W/m2
12:56 84.6 °F 51.4 °F 29.9 in ENE 2.9 mph 8 mph 32% 0 in 810 W/m2
13:01 84.9 °F 51.8 °F 29.9 in East 4 mph 8 mph 32% 0 in 814 W/m2
13:06 85.5 °F 51.4 °F 29.9 in East 6 mph 6 mph 31% 0 in 819 W/m2
13:11 85.5 °F 52.2 °F 29.9 in South 4.9 mph 5 mph 32% 0 in 823 W/m2
13:16 85.5 °F 50.5 °F 29.9 in NE 12.1 mph 13 mph 30% 0 in 821 W/m2
13:21 85.1 °F 51.1 °F 29.9 in SE 0.9 mph 3 mph 31% 0 in 821 W/m2
13:26 85.3 °F 50.4 °F 29.9 in SE 2 mph 13 mph 30% 0 in 828 W/m2
13:31 85.3 °F 49.5 °F 29.9 in NNW 4.9 mph 10 mph 29% 0 in 830 W/m2
13:36 85.6 °F 50.7 °F 29.9 in ESE 4 mph 7 mph 30% 0 in 833 W/m2
13:41 86.2 °F 51.1 °F 29.9 in East 6 mph 7 mph 30% 0 in 831 W/m2
13:46 86.5 °F 50.5 °F 29.9 in North 8.9 mph 9 mph 29% 0 in 831 W/m2
13:51 86.4 °F 50.4 °F 29.9 in NE 2 mph 10 mph 29% 0 in 838 W/m2
13:56 86.4 °F 50.4 °F 29.9 in SE 8.9 mph 9 mph 29% 0 in 833 W/m2
14:01 86.5 °F 50.5 °F 29.9 in ESE 2 mph 10 mph 29% 0 in 838 W/m2
14:06 86.5 °F 50.5 °F 29.9 in East 4 mph 5 mph 29% 0 in 830 W/m2
14:11 86.7 °F 50.7 °F 29.9 in ESE 6 mph 9 mph 29% 0 in 830 W/m2
14:16 86.7 °F 50.7 °F 29.9 in East 4 mph 7 mph 29% 0 in 828 W/m2
14:21 87.1 °F 50.9 °F 29.9 in East 4 mph 7 mph 29% 0 in 830 W/m2
14:26 87.1 °F 50 °F 29.9 in ESE 0.9 mph 6 mph 28% 0 in 823 W/m2
14:31 86.9 °F 50.9 °F 29.9 in ESE 0.9 mph 5 mph 29% 0 in 821 W/m2
14:36 87.3 °F 51.1 °F 29.9 in ENE 4 mph 7 mph 29% 0 in 821 W/m2
14:41 87.3 °F 50.2 °F 29.9 in ENE 2.9 mph 4 mph 28% 0 in 816 W/m2
14:46 87.4 °F 51.3 °F 29.9 in SE 2.9 mph 4 mph 29% 0 in 821 W/m2
14:52 87.8 °F 49.6 °F 29.9 in East 2 mph 9 mph 27% 0 in 816 W/m2
14:57 88.2 °F 48.9 °F 29.9 in NE 0.9 mph 7 mph 26% 0 in 812 W/m2
15:02 88.3 °F 50.2 °F 29.9 in NW 0.9 mph 8 mph 27% 0 in 805 W/m2
15:07 88.3 °F 50.2 °F 29.9 in East 2.9 mph 10 mph 27% 0 in 809 W/m2
15:12 88.2 °F 50.9 °F 29.9 in SSE 4.9 mph 5 mph 28% 0 in 803 W/m2
15:17 88.2 °F 50 °F 29.9 in ENE 0.9 mph 4 mph 27% 0 in 793 W/m2
15:22 88.2 °F 47.8 °F 29.9 in Calm   6 mph 25% 0 in 791 W/m2
15:27 88.3 °F 48 °F 29.9 in ENE 2.9 mph 7 mph 25% 0 in 788 W/m2
15:32 88.9 °F 49.6 °F 29.9 in ENE 2.9 mph 7 mph 26% 0 in 780 W/m2
15:37 89.1 °F 49.6 °F 29.9 in East 0.9 mph 3 mph 26% 0 in 775 W/m2
15:42 89.2 °F 48.7 °F 29.9 in ENE 4 mph 7 mph 25% 0 in 766 W/m2
15:47 89.1 °F 49.6 °F 29.9 in East 4 mph 7 mph 26% 0 in 756 W/m2
15:52 89.1 °F 48.7 °F 29.9 in SSW 4 mph 9 mph 25% 0 in 747 W/m2
15:57 89.2 °F 48.7 °F 29.9 in NE 2.9 mph 4 mph 25% 0 in 737 W/m2
16:02 89.1 °F 48.7 °F 29.9 in SE 2 mph 9 mph 25% 0 in 729 W/m2
16:07 89.1 °F 48.7 °F 29.9 in SW 2.9 mph 10 mph 25% 0 in 726 W/m2
16:12 88.7 °F 49.5 °F 29.9 in North 2 mph 4 mph 26% 0 in 708 W/m2
16:17 88.9 °F 50.5 °F 29.9 in ESE 2 mph 5 mph 27% 0 in 700 W/m2
16:22 89.4 °F 50 °F 29.9 in ENE 0.9 mph 9 mph 26% 0 in 689 W/m2
16:27 89.6 °F 50.2 °F 29.9 in East 6.9 mph 10 mph 26% 0 in 675 W/m2
16:32 89.2 °F 49.8 °F 29.9 in ESE 4 mph 7 mph 26% 0 in 668 W/m2
16:37 89.2 °F 48.7 °F 29.9 in East 2 mph 10 mph 25% 0 in 666 W/m2
16:42 89.4 °F 48.9 °F 29.9 in SE 4 mph 8 mph 25% 0 in 656 W/m2
16:47 89.4 °F 48.9 °F 29.9 in ESE 2 mph 4 mph 25% 0 in 647 W/m2
16:52 89.4 °F 48.9 °F 29.9 in ENE 2 mph 8 mph 25% 0 in 633 W/m2
16:57 89.2 °F 49.8 °F 29.9 in SE 2.9 mph 8 mph 26% 0 in 619 W/m2
17:02 89.2 °F 49.8 °F 29.9 in East 2.9 mph 6 mph 26% 0 in 610 W/m2
17:07 89.1 °F 48.7 °F 29.9 in SE 4 mph 8 mph 25% 0 in 598 W/m2
17:12 89.1 °F 49.6 °F 29.9 in SSE 6.9 mph 15 mph 26% 0 in 584 W/m2
17:17 89.2 °F 49.8 °F 29.9 in SE 6.9 mph 9 mph 26% 0 in 570 W/m2
17:22 89.2 °F 49.8 °F 29.9 in ESE 2 mph 15 mph 26% 0 in 559 W/m2
17:27 89.2 °F 49.8 °F 29.9 in East 2 mph 7 mph 26% 0 in 545 W/m2
17:32 89.1 °F 48.7 °F 29.9 in East 2 mph 8 mph 25% 0 in 533 W/m2
17:37 89.2 °F 49.8 °F 29.9 in NE 4.9 mph 6 mph 26% 0 in 520 W/m2
17:42 89.2 °F 50.9 °F 29.9 in ENE 2.9 mph 4 mph 27% 0 in 503 W/m2
17:47 89.4 °F 51.1 °F 29.9 in ESE 2.9 mph 7 mph 27% 0 in 489 W/m2
17:52 89.4 °F 50 °F 29.9 in ENE 2.9 mph 7 mph 26% 0 in 475 W/m2
17:57 89.2 °F 50.9 °F 29.9 in SSE 2.9 mph 5 mph 27% 0 in 461 W/m2
18:02 89.1 °F 50.7 °F 29.9 in East 2 mph 7 mph 27% 0 in 445 W/m2
18:07 89.1 °F 50.7 °F 29.9 in SE 2.9 mph 5 mph 27% 0 in 431 W/m2
18:12 89.1 °F 51.8 °F 29.9 in ENE 2.9 mph 7 mph 28% 0 in 415 W/m2
18:17 88.9 °F 51.6 °F 29.9 in East 2 mph 2 mph 28% 0 in 401 W/m2
18:22 88.9 °F 51.6 °F 29.9 in SE 4 mph 6 mph 28% 0 in 387 W/m2
18:27 89.1 °F 51.8 °F 29.8 in SE 0.9 mph 6 mph 28% 0 in 369 W/m2
18:32 89.1 °F 50.7 °F 29.8 in ENE 2.9 mph 7 mph 27% 0 in 360 W/m2
18:37 89.1 °F 51.8 °F 29.8 in ESE 0.9 mph 6 mph 28% 0 in 345 W/m2
18:42 89.1 °F 51.8 °F 29.8 in ESE 2 mph 3 mph 28% 0 in 330 W/m2
18:47 89.1 °F 50.7 °F 29.8 in ENE 2.9 mph 3 mph 27% 0 in 318 W/m2
18:52 89.1 °F 50.7 °F 29.8 in ENE 0.9 mph 6 mph 27% 0 in 304 W/m2
18:57 89.1 °F 49.6 °F 29.8 in NE 4 mph 6 mph 26% 0 in 287 W/m2
19:02 88.5 °F 50.4 °F 29.8 in ENE 4 mph 10 mph 27% 0 in 265 W/m2
19:07 88.2 °F 50 °F 29.8 in ESE 2 mph 3 mph 27% 0 in 234 W/m2
19:12 88.3 °F 51.1 °F 29.8 in ENE 2 mph 6 mph 28% 0 in 214 W/m2
19:17 88.3 °F 51.1 °F 29.8 in Calm   2 mph 28% 0 in 46 W/m2
19:22 88.3 °F 51.1 °F 29.8 in West 2 mph 6 mph 28% 0 in 40 W/m2
19:27 88.2 °F 50.9 °F 29.8 in SE 2 mph 6 mph 28% 0 in 39 W/m2
19:32 88 °F 51.8 °F 29.8 in ESE 0.9 mph 3 mph 29% 0 in 37 W/m2
19:37 88 °F 50.7 °F 29.8 in ESE 4 mph 7 mph 28% 0 in 35 W/m2
19:42 87.4 °F 51.3 °F 29.8 in SE 2 mph 2 mph 29% 0 in 33 W/m2
19:47 87.4 °F 51.3 °F 29.8 in SE 4 mph 4 mph 29% 0 in 32 W/m2
19:52 87.3 °F 51.1 °F 29.8 in ESE 2.9 mph 3 mph 29% 0 in 30 W/m2
19:57 87.1 °F 50.9 °F 29.8 in ENE 0.9 mph 3 mph 29% 0 in 28 W/m2
20:02 86.7 °F 50.7 °F 29.8 in East 2 mph 3 mph 29% 0 in 26 W/m2
20:07 86.4 °F 50.4 °F 29.8 in ESE 2.9 mph 3 mph 29% 0 in 25 W/m2
20:12 85.8 °F 52.5 °F 29.8 in Calm   2 mph 32% 0 in 25 W/m2
20:17 85.6 °F 52.3 °F 29.8 in Calm   2 mph 32% 0 in 19 W/m2
20:22 84.9 °F 52.5 °F 29.8 in Calm   2 mph 33% 0 in 18 W/m2
20:27 84.2 °F 52.7 °F 29.8 in East 0.9 mph 1 mph 34% 0 in 16 W/m2
20:32 83.7 °F 53.1 °F 29.8 in East 0.9 mph 2 mph 35% 0 in 12 W/m2
20:37 82.8 °F 52.3 °F 29.8 in East 0.9 mph 2 mph 35% 0 in 11 W/m2
20:42 82 °F 52.5 °F 29.8 in East 0.9 mph 2 mph 36% 0 in 9 W/m2
20:47 81.1 °F 52.3 °F 29.8 in East 0.9 mph 2 mph 37% 0 in 7 W/m2
20:52 80.2 °F 51.6 °F 29.8 in East 0.9 mph 2 mph 37% 0 in 5 W/m2
20:57 79.5 °F 51.6 °F 29.8 in East 0.9 mph 1 mph 38% 0 in 0 W/m2
21:03 79 °F 52 °F 29.9 in East 0.9 mph 2 mph 39% 0 in 0 W/m2
21:08 78.3 °F 51.3 °F 29.9 in East 0.9 mph 2 mph 39% 0 in 0 W/m2
21:13 77.5 °F 51.3 °F 29.9 in East 0.9 mph 2 mph 40% 0 in 0 W/m2
21:18 77 °F 50.9 °F 29.9 in East 2 mph 2 mph 40% 0 in 0 W/m2
21:23 76.5 °F 51.1 °F 29.9 in East 0.9 mph 2 mph 41% 0 in 0 W/m2
21:28 75.9 °F 50.5 °F 29.9 in East 0.9 mph 2 mph 41% 0 in 0 W/m2
21:33 75.6 °F 50.9 °F 29.9 in Calm     42% 0 in 0 W/m2
21:38 75 °F 50.4 °F 29.9 in East 0.9 mph 1 mph 42% 0 in 0 W/m2
21:43 74.8 °F 50.9 °F 29.9 in Calm   1 mph 43% 0 in 0 W/m2
21:48 74.5 °F 51.1 °F 29.9 in Calm   1 mph 44% 0 in 0 W/m2
21:53 74.1 °F 50.9 °F 29.9 in Calm   1 mph 44% 0 in 0 W/m2
21:58 73.9 °F 51.3 °F 29.9 in Calm   1 mph 45% 0 in 0 W/m2
22:03 73.4 °F 50.7 °F 29.9 in Calm     45% 0 in 0 W/m2
22:08 73.2 °F 51.3 °F 29.9 in East 0.9 mph 2 mph 46% 0 in 0 W/m2
22:13 72.9 °F 50.9 °F 29.9 in Calm   2 mph 46% 0 in 0 W/m2
22:18 72.7 °F 51.3 °F 29.9 in East 2 mph 2 mph 47% 0 in 0 W/m2
22:23 72.3 °F 50.9 °F 29.9 in East 0.9 mph 2 mph 47% 0 in 0 W/m2
22:28 72.1 °F 51.4 °F 29.9 in Calm   2 mph 48% 0 in 0 W/m2
22:33 72 °F 51.3 °F 29.9 in Calm     48% 0 in 0 W/m2
22:38 71.8 °F 51.1 °F 29.9 in Calm   2 mph 48% 0 in 0 W/m2
22:43 71.6 °F 51.4 °F 29.9 in Calm     49% 0 in 0 W/m2
22:48 71.4 °F 51.3 °F 29.9 in East 0.9 mph 1 mph 49% 0 in 0 W/m2
22:53 71.2 °F 51.1 °F 29.9 in Calm   1 mph 49% 0 in 0 W/m2
22:58 71.1 °F 51.4 °F 29.9 in Calm   1 mph 50% 0 in 0 W/m2
23:03 70.9 °F 51.3 °F 29.9 in Calm     50% 0 in 0 W/m2
23:08 70.5 °F 50.9 °F 29.9 in East 0.9 mph 1 mph 50% 0 in 0 W/m2
23:13 70.3 °F 51.4 °F 29.9 in Calm     51% 0 in 0 W/m2
23:18 70.2 °F 51.3 °F 29.9 in Calm     51% 0 in 0 W/m2
23:23 69.6 °F 51.3 °F 29.9 in Calm   1 mph 52% 0 in 0 W/m2
23:28 69.4 °F 51.1 °F 29.9 in Calm     52% 0 in 0 W/m2
23:33 69.3 °F 51.4 °F 29.8 in Calm   1 mph 53% 0 in 0 W/m2
23:38 69.1 °F 51.3 °F 29.9 in Calm   1 mph 53% 0 in 0 W/m2
23:43 68.7 °F 50.9 °F 29.9 in Calm     53% 0 in 0 W/m2
23:48 68.5 °F 51.3 °F 29.9 in Calm     54% 0 in 0 W/m2
23:53 68.5 °F 51.3 °F 29.8 in Calm     54% 0 in 0 W/m2
23:58 68.5 °F 51.3 °F 29.8 in Calm     54% 0 in 0 W/m2
Juneau County Weather
Compliments of Weather Underground - 4 mb